Weather History for Sioux City, IA

Change the Weather History Date:

Thursday, August 15, 2013

  Actual Average Record
Temperature  
Mean Temperature 63 °F 72 °F  
Max Temperature 66 °F 84 °F 105 °F (1937)
Min Temperature 60 °F 62 °F 45 °F (1992)
Degree Days  
Heating Degree Days 2 0  
Month to date heating degree days 5 0  
Since 1 June heating degree days 60 30  
Since 1 July heating degree days 20 3  
Cooling Degree Days 0 8  
Month to date cooling degree days 63 127  
Year to date cooling degree days 600 672  
Since 1 June cooling degree days 544 608  
Growing Degree Days 13 (Base 50)    
Moisture  
Dew Point 59 °F    
Average Humidity 87    
Maximum Humidity 96    
Minimum Humidity 71    
Precipitation  
Precipitation 0.06 in 0.11 in 1.72 in (1908)
Month to date precipitation 1.35 1.54  
Year to date precipitation 18.41 18.85  
Snow  
Snow 0.00 in 0.00 in 0.00 in ()
Month to date snowfall 0.0 0.0  
Since 1 June snowfall 0.0 0.0  
Since 1 July snowfall 0.0 0.0  
Snow Depth 0.00 in    
Sea Level Pressure  
Sea Level Pressure 30.09 in    
Wind  
Wind Speed 9 mph (SE)    
Max Wind Speed 16 mph    
Max Gust Speed 21 mph    
Visibility 10 miles    
Events Rain    
T = Trace of Precipitation, MM = Missing Value Source: NWS Daily Summary

Daily Weather History Graph

Daily Weather History Graph

Search for Another Location

Airport:

Trip Planner

Search our weather history database for the weather conditions in past years. The results will help you decide how hot, cold, wet, or windy it might be!

Date:

Astronomy

Aug. 15, 2013 Rise Set
Actual Time 6:32 AM CDT 8:26 PM CDT
Civil Twilight 6:02 AM CDT 8:56 PM CDT
Nautical Twilight 5:25 AM CDT 9:33 PM CDT
Astronomical Twilight 4:45 AM CDT 10:12 PM CDT
Moon 3:46 PM CDT (8/15) 12:41 AM CDT (8/15)
Length of Visible Light 14h 53m
Length of Day
13h 53m
Waxing Gibbous, 64% of the Moon is Illuminated
Aug 15
Waxing Gibbous
Aug 20
Full
Aug 28
Last Quarter
Sep 5
New
Sep 12
First Quarter

Hourly Weather History & Observations

Time (CDT) Temp. Dew Point Humidity Pressure Visibility Wind Dir Wind Speed Gust Speed Precip Events Conditions
12:52 AM 62.1 °F 60.1 °F 93% 30.12 in 10.0 mi ESE 5.8 mph - 0.02 in Rain Light Rain
1:52 AM 61.0 °F 59.0 °F 93% 30.11 in 9.0 mi ESE 5.8 mph - 0.02 in Rain Light Rain
2:52 AM 61.0 °F 59.0 °F 93% 30.10 in 9.0 mi ESE 6.9 mph - 0.01 in Rain Light Rain
3:19 AM 60.8 °F 59.0 °F 94% 30.11 in 7.0 mi ESE 9.2 mph - 0.01 in Rain Light Rain
3:30 AM 60.8 °F 59.0 °F 94% 30.11 in 6.0 mi SE 10.4 mph - 0.01 in Rain Light Rain
3:40 AM 60.8 °F 57.2 °F 88% 30.10 in 8.0 mi ESE 10.4 mph - 0.02 in Rain Light Rain
3:52 AM 60.1 °F 59.0 °F 96% 30.09 in 9.0 mi ESE 11.5 mph - 0.02 in Rain Light Rain
4:21 AM 60.8 °F 59.0 °F 94% 30.09 in 10.0 mi ESE 10.4 mph - 0.00 in   Overcast
4:52 AM 60.1 °F 57.9 °F 93% 30.08 in 10.0 mi ESE 9.2 mph - 0.00 in Rain Light Rain
5:52 AM 60.1 °F 57.9 °F 93% 30.08 in 10.0 mi ESE 12.7 mph - 0.01 in   Overcast
6:20 AM 60.8 °F 57.2 °F 88% 30.08 in 10.0 mi ESE 11.5 mph - N/A   Overcast
6:52 AM 60.1 °F 57.9 °F 93% 30.07 in 10.0 mi ESE 9.2 mph - N/A   Overcast
7:13 AM 60.8 °F 57.2 °F 88% 30.08 in 10.0 mi ESE 11.5 mph - N/A   Overcast
7:52 AM 60.1 °F 59.0 °F 96% 30.08 in 10.0 mi ESE 10.4 mph - N/A   Overcast
8:52 AM 62.1 °F 59.0 °F 90% 30.09 in 10.0 mi SE 11.5 mph - N/A   Overcast
9:52 AM 63.0 °F 60.1 °F 90% 30.08 in 10.0 mi SE 12.7 mph - N/A   Overcast
10:52 AM 64.9 °F 60.1 °F 84% 30.07 in 10.0 mi SSE 9.2 mph - N/A   Overcast
11:41 AM 64.4 °F 60.8 °F 88% 30.08 in 10.0 mi SSE 8.1 mph - N/A   Overcast
11:52 AM 64.9 °F 60.1 °F 84% 30.07 in 10.0 mi SSE 10.4 mph - N/A   Overcast
12:52 PM 64.9 °F 59.0 °F 81% 30.07 in 10.0 mi SSE 11.5 mph - N/A   Overcast
1:52 PM 64.9 °F 59.0 °F 81% 30.07 in 10.0 mi SE 10.4 mph - N/A   Overcast
2:52 PM 66.0 °F 60.1 °F 81% 30.06 in 10.0 mi SSE 10.4 mph - N/A   Overcast
3:52 PM 64.9 °F 60.1 °F 84% 30.07 in 10.0 mi SE 5.8 mph - N/A   Overcast
4:52 PM 64.9 °F 59.0 °F 81% 30.07 in 10.0 mi SE 9.2 mph - N/A   Overcast
5:52 PM 64.0 °F 59.0 °F 84% 30.09 in 10.0 mi ESE 12.7 mph - N/A   Overcast
6:17 PM 64.4 °F 59.0 °F 83% 30.08 in 10.0 mi ESE 10.4 mph - N/A   Overcast
6:49 PM 64.4 °F 57.2 °F 77% 30.08 in 10.0 mi ESE 10.4 mph - N/A   Overcast
6:52 PM 64.9 °F 57.9 °F 78% 30.07 in 10.0 mi ESE 10.4 mph - N/A   Overcast
7:52 PM 64.0 °F 57.9 °F 80% 30.09 in 10.0 mi ESE 6.9 mph - N/A   Overcast
8:52 PM 63.0 °F 57.9 °F 84% 30.11 in 10.0 mi SE 5.8 mph - N/A   Overcast
9:52 PM 64.0 °F 57.9 °F 80% 30.13 in 10.0 mi East 4.6 mph - N/A   Overcast
10:52 PM 63.0 °F 57.9 °F 84% 30.14 in 10.0 mi ESE 3.5 mph - N/A   Overcast